SNORRE B OILP current weather conditions

sailwx.info

Air temperature 5.0° C
Visibility: greater than 5.4 NM
Dewpoint 3.0° C
Present weather: Light rain.

Last reported at 2015-Jan-29 14:20 UTC.
Time now 2015-Jan-29 16:23 UTC

Location: N 61°32' E 002°13'.
View on Google Maps.

See reports from other nearby stations

  
Tides and Currents Weather Stations Pressure Air Temp Water Temp Dewpoint Dewpoint Depression Visibility Wind Speed Wind Dir Waves Ship Positions
date/time (UTC)wind fromknots sea level pressurealtimeterstation pressurevisibilityair tempwater tempwave heightnotes
2015-Jan-29 15:20 010 5 3.8 4.0 Rain.
2015-Jan-29 14:50 030 3 4.3 5.0 Light rain.
2015-Jan-29 14:20 5.4 5.0 Light rain.
2015-Jan-29 13:50 030 8 5.4 4.0 Light rain showers.
2015-Jan-29 13:20 050 8 5.4 5.0 Light rain showers.
2015-Jan-29 12:50 030 14 5.4 5.0
2015-Jan-29 12:20 020 8 5.4 5.0 Light rain showers.
2015-Jan-29 11:50 320 14 3.8 4.0 Light rain showers.
2015-Jan-29 11:20 300 27 4.3 4.0 Light rain showers.
2015-Jan-29 10:50 330 20 5.4 5.0
2015-Jan-29 10:20 310 36 5.4 5.0 Drizzle.
2015-Jan-29 09:50 300 34 4.9 4.0 Light rain.
2015-Jan-29 09:20 310 34 5.4 4.0 Light rain showers.
2015-Jan-29 08:50 320 34 5.4 4.0 Light rain showers.
2015-Jan-29 08:20 320 36 5.4 4.0 Light rain.
2015-Jan-29 07:50 320 38 2.7 4.0 Light rain.
2015-Jan-29 07:20 320 37 4.0
2015-Jan-29 06:50 330 41 1.4 4.0 Light rain.
2015-Jan-29 06:20 330 36 1.1 3.0 Rain.
2015-Jan-29 05:50 320 38 1.0 4.0 Rain.
2015-Jan-29 05:20 310 38 1.8 5.0 Light rain.
2015-Jan-29 04:50 330 33 1.5 4.0 Light rain snow.
2015-Jan-29 04:20 340 27 1.0 2.0 Light rain snow.
2015-Jan-29 03:50 320 20 2.7 3.0 Light rain snow.
2015-Jan-29 03:20 330 13 4.3 3.0 Light rain snow.
2015-Jan-29 02:50 310 14 3.8 2.0 Light rain snow.
2015-Jan-29 02:20 310 12 3.2 2.0 Rain snow.
2015-Jan-29 01:50 350 15 1.9 2.0 Light rain snow.
2015-Jan-29 01:20 310 19 2.5 2.0 Light rain snow.
2015-Jan-29 00:50 310 25 1.5 3.0 Rain snow.
2015-Jan-29 00:20 320 26 2.4 3.0 Rain.
2015-Jan-28 23:50 320 35 4.3 4.0 Light rain.
2015-Jan-28 23:20 300 32 3.2 4.0 Light rain.
2015-Jan-28 22:50 320 20 2.7 4.0 Light rain showers.
2015-Jan-28 22:20 340 18 5.4 5.0 Light rain showers.
2015-Jan-28 21:50 360 18 5.4 5.0
2015-Jan-28 21:20 010 20 5.4 5.0
2015-Jan-28 20:50 010 24 5.4 4.0
2015-Jan-28 20:20 020 22 5.4 5.0
2015-Jan-28 19:50 020 22 5.4 5.0
2015-Jan-28 19:20 010 20 5.4 4.0 Drizzle.
2015-Jan-28 18:50 360 17 4.3 4.0 Light rain.
2015-Jan-28 18:20 360 16 2.4 4.0 Rain.
2015-Jan-28 17:50 350 17 3.8 4.0 Light rain.
2015-Jan-28 17:20 350 20 5.4 4.0 Light rain.
2015-Jan-28 16:50 010 19 5.4 5.0 Light rain.
2015-Jan-28 16:20 360 14 4.3 5.0 Light rain.
2015-Jan-28 15:50 350 15 5.4 5.0 Drizzle.
2015-Jan-28 15:20 330 12 5.4 6.0
2015-Jan-28 14:50 290 8 5.4 6.0 Light rain showers.
2015-Jan-28 14:20 250 7 5.4 7.0
2015-Jan-28 13:50 230 10 5.4 7.0
2015-Jan-28 13:20 240 11 5.4 7.0
2015-Jan-28 12:50 220 13 5.4 7.0
2015-Jan-28 12:20 210 15 5.4 7.0
2015-Jan-28 11:50 230 15 5.4 7.0
2015-Jan-28 11:20 230 19 5.4 7.0
2015-Jan-28 10:50 230 19 5.4 8.0
2015-Jan-28 10:20 230 20 5.4 7.0
2015-Jan-28 09:50 230 23 5.4 8.0
2015-Jan-28 09:20 230 23 5.4 8.0
2015-Jan-28 08:50 230 26 5.4 8.0
2015-Jan-28 08:20 220 27 3.8 8.0 Light rain showers.
2015-Jan-28 07:50 210 24 5.4 8.0 Light rain showers.
2015-Jan-28 07:20 220 27 5.4 8.0 Light rain showers.
2015-Jan-28 06:50 220 26 5.4 7.0
2015-Jan-28 06:20 200 26 3.8 7.0 Light rain.
2015-Jan-28 05:50 210 29 3.2 7.0 Light rain.
2015-Jan-28 05:20 220 31 5.4 7.0 Light rain.
2015-Jan-28 04:50 210 31 3.2 7.0 Light rain.
2015-Jan-28 04:20 210 27 3.2 7.0 Light rain.
2015-Jan-28 03:50 230 36 2.2 7.0 Light rain.
2015-Jan-28 03:20 210 35 2.7 7.0 Light rain.
2015-Jan-28 02:50 210 33 2.7 7.0 Light rain.
2015-Jan-28 02:20 210 34 3.8 7.0 Light rain.
2015-Jan-28 01:50 210 33 3.8 7.0 Light rain.
2015-Jan-28 01:20 220 34 2.2 7.0 Light rain.
2015-Jan-28 00:50 220 32 2.7 8.0 Light rain.
2015-Jan-28 00:20 230 33 2.4 8.0 Light rain showers.
2015-Jan-27 23:50 230 35 3.2 8.0 Light rain showers.
2015-Jan-27 23:20 230 33 5.4 8.0 Light rain.
2015-Jan-27 22:50 230 33 2.0 8.0 Light rain.
2015-Jan-27 22:20 230 31 1.4 8.0 Light rain. Mist.
2015-Jan-27 21:50 230 32 1.8 8.0 Light rain. Mist.
2015-Jan-27 21:20 230 33 5.4 8.0 Light drizzle.
2015-Jan-27 20:50 240 31 5.4 8.0 Light rain.
2015-Jan-27 20:20 240 33 5.4 8.0 Light rain.
2015-Jan-27 19:50 240 29 4.3 8.0 Light rain.
2015-Jan-27 19:20 240 33 3.2 8.0 Light rain.
2015-Jan-27 18:50 250 25 3.2 8.0 Light rain.
2015-Jan-27 18:20 240 29 3.2 8.0 Light rain.
2015-Jan-27 17:50 240 26 2.7 8.0 Light rain.
2015-Jan-27 17:20 230 27 2.5 8.0 Light rain.
2015-Jan-27 16:50 240 26 1.5 8.0 Light rain.
2015-Jan-27 16:20 240 25 5.4 8.0